DR0T Weather Reports


time (UTC)temp
C
wind
direction
speed
KPH
gust
KPH
rain 1hr
cm
rain 24hr
cm
rain mn
cm
humidity
%
barometer
mb
20260507051725 6 235 1.6 4.8 0.00 1.50 0.53 99 1012.2
20260507051227 6 252 4.8 9.7 0.00 1.50 0.53 99 1012.2
20260507050726 6 250 4.8 6.4 0.00 1.50 0.53 99 1012.0
20260507050221 6 246 3.2 4.8 0.00 1.50 0.53 99 1012.0
20260507045720 6 244 4.8 6.4 0.00 1.50 0.53 99 1011.9
20260507045218 6 244 4.8 6.4 0.00 1.50 0.53 99 1011.9
20260507044719 6 240 3.2 4.8 0.00 1.50 0.53 99 1011.8
20260507044216 6 234 1.6 3.2 0.00 1.50 0.53 99 1011.7
20260507043735 6 240 3.2 4.8 0.00 1.50 0.53 99 1011.6
20260507043234 6 249 6.4 11.3 0.00 1.50 0.53 99 1011.6
20260507042733 6 233 4.8 9.7 0.00 1.50 0.53 99 1011.5
20260507042231 6 246 4.8 9.7 0.00 1.50 0.53 99 1011.4
20260507041736 6 251 4.8 6.4 0.00 1.50 0.53 99 1011.5
20260507041229 6 244 4.8 6.4 0.00 1.50 0.53 99 1011.4
20260507040727 6 250 4.8 9.7 0.00 1.50 0.53 99 1011.4
20260507040227 6 251 6.4 11.3 0.00 1.50 0.53 99 1011.3
20260507035729 6 258 6.4 9.7 0.00 1.50 0.53 99 1011.2
20260507035224 6 248 4.8 11.3 0.00 1.50 0.53 99 1011.2
20260507034723 6 244 4.8 6.4 0.00 1.50 0.53 99 1011.1
20260507034221 6 252 4.8 6.4 0.00 1.50 0.53 99 1011.1
20260507033720 6 240 3.2 6.4 0.00 1.50 0.53 99 1011.2
20260507033223 6 249 1.6 4.8 0.00 1.50 0.53 99 1011.0
20260507032722 6 248 3.2 6.4 0.00 1.50 0.53 99 1011.0
20260507032218 6 244 3.2 6.4 0.00 1.50 0.53 99 1011.0
20260507031735 6 231 1.6 4.8 0.00 1.50 0.53 99 1011.0
20260507031234 6 230 1.6 4.8 0.00 1.50 0.53 99 1011.0
20260507030732 6 227 1.6 4.8 0.00 1.50 0.53 99 1010.9
20260507030231 6 238 3.2 6.4 0.00 1.50 0.53 99 1010.9
20260507025730 6 255 1.6 3.2 0.00 1.50 0.53 99 1010.9
20260507025231 6 233 1.6 3.2 0.00 1.50 0.53 99 1010.8
20260507024728 6 244 3.2 4.8 0.00 1.50 0.53 99 1010.9
20260507024228 6 243 3.2 6.4 0.00 1.50 0.53 99 1010.9
20260507023725 6 250 3.2 4.8 0.00 1.50 0.53 99 1010.8
20260507023224 6 252 3.2 6.4 0.00 1.50 0.53 99 1010.8
20260507022722 6 241 3.2 4.8 0.00 1.50 0.53 99 1010.7
20260507022221 6 233 1.6 3.2 0.00 1.50 0.53 99 1010.7
20260507021720 6 245 1.6 4.8 0.00 1.50 0.53 99 1010.6
20260507021221 6 238 3.2 4.8 0.00 1.50 0.53 99 1010.6
20260507020722 6 244 3.2 6.4 0.00 1.50 0.53 99 1010.5
20260507020216 6 243 3.2 6.4 0.00 1.50 0.53 99 1010.4
20260507015737 6 248 3.2 6.4 0.00 1.50 0.53 99 1010.5
20260507015234 6 249 4.8 6.4 0.00 1.50 0.53 99 1010.5
20260507014733 6 252 4.8 6.4 0.00 1.50 0.53 99 1010.4
20260507014232 7 245 4.8 9.7 0.00 1.50 0.53 99 1010.4
20260507013731 7 249 4.8 9.7 0.00 1.50 0.53 99 1010.3
20260507013230 7 248 4.8 6.4 0.00 1.50 0.53 99 1010.2
20260507012728 7 250 4.8 6.4 0.00 1.50 0.53 99 1010.2
20260507012229 7 250 4.8 6.4 0.00 1.50 0.53 99 1010.3
20260507011726 7 241 4.8 9.7 0.03 1.50 0.53 99 1010.1
20260507011228 7 246 4.8 6.4 0.03 1.50 0.53 99 1010.2
20260507010724 7 249 1.6 4.8 0.03 1.50 0.53 99 1010.2
20260507010226 7 253 1.6 3.2 0.05 1.50 0.53 99 1010.2
20260507005721 7 243 1.6 3.2 0.05 1.50 0.53 99 1010.2
20260507005219 7 248 3.2 4.8 0.08 1.50 0.53 99 1010.2
20260507004718 7 246 3.2 4.8 0.10 1.50 0.53 99 1010.2
20260507004217 7 243 3.2 6.4 0.10 1.50 0.53 99 1010.0
20260507003720 7 240 1.6 4.8 0.13 1.50 0.53 99 1010.0
20260507003234 7 220 0.0 1.6 0.15 1.50 0.53 99 1010.1
20260507002734 7 216 0.0 1.6 0.15 1.50 0.53 99 1010.2
20260507002233 7 216 0.0 1.6 0.18 1.50 0.53 99 1010.1
20260507001731 7 216 0.0 3.2 0.18 1.47 0.51 99 1010.2
20260507001230 7 0.0 0.0 0.18 1.47 0.51 99 1010.1
20260507000733 7 208 0.0 1.6 0.20 1.47 0.51 99 1010.2
20260507000231 7 331 0.0 4.8 0.18 1.45 0.48 99 1010.2
20260506235726 7 237 0.0 3.2 0.20 1.45 0.48 99 1010.3
20260506235225 7 222 0.0 3.2 0.20 1.42 0.46 99 1010.1
20260506234724 7 192 0.0 1.6 0.18 1.40 0.43 99 1010.3
20260506234222 8 0.0 0.0 0.20 1.40 0.43 99 1010.3
20260506233725 8 222 0.0 1.6 0.20 1.37 0.41 99 1010.3
20260506233224 8 220 0.0 3.2 0.20 1.35 0.38 99 1010.2
20260506232718 8 219 0.0 3.2 0.23 1.35 0.38 99 1010.2
20260506232218 8 219 0.0 3.2 0.23 1.32 0.36 99 1010.1
20260506231716 8 0.0 0.0 0.23 1.30 0.33 99 1010.1
20260506231237 8 256 1.6 3.2 0.28 1.30 0.33 99 1010.1
20260506230738 8 259 1.6 3.2 0.28 1.27 0.30 99 1010.0
20260506230232 8 240 1.6 6.4 0.30 1.27 0.30 99 1010.0
20260506225731 8 239 1.6 4.8 0.28 1.24 0.28 99 1009.9
20260506225230 8 241 3.2 4.8 0.28 1.22 0.25 99 1009.9
20260506224729 8 237 1.6 4.8 0.30 1.22 0.25 99 1010.0
20260506224228 8 236 1.6 4.8 0.28 1.19 0.23 99 1009.9
20260506223726 8 236 1.6 4.8 0.28 1.17 0.20 99 1009.9
20260506223225 8 242 1.6 3.2 0.25 1.14 0.18 99 1009.7
20260506222725 8 245 3.2 6.4 0.25 1.12 0.15 99 1009.7
20260506222223 8 243 1.6 3.2 0.23 1.09 0.13 99 1009.7
20260506221724 8 243 4.8 6.4 0.23 1.07 0.10 99 1009.6
20260506221227 8 245 4.8 6.4 0.18 1.02 0.05 99 1009.7
20260506220719 8 241 4.8 6.4 0.15 0.99 0.03 99 1009.5
20260506220218 9 243 3.2 4.8 0.15 0.97 0.97 99 1009.5
20260506215717 9 237 1.6 4.8 0.20 0.97 0.97 99 1009.5
20260506215216 9 235 1.6 3.2 0.20 0.94 0.94 99 1009.5
20260506214734 9 243 1.6 4.8 0.23 0.91 0.91 99 1009.5
20260506214235 9 239 3.2 4.8 0.25 0.94 0.91 99 1009.4
20260506213735 9 242 3.2 4.8 0.25 0.91 0.89 99 1009.5
20260506213231 9 246 3.2 4.8 0.28 0.91 0.89 99 1009.4
20260506212729 9 242 3.2 3.2 0.28 0.89 0.86 99 1009.3
20260506212229 9 242 3.2 4.8 0.30 0.91 0.86 99 1009.2
20260506211730 9 244 4.8 4.8 0.33 0.89 0.84 99 1009.3
20260506211226 9 246 4.8 4.8 0.36 0.91 0.84 99 1009.3
20260506210725 9 250 4.8 4.8 0.38 0.94 0.84 99 1009.3
20260506210225 9 253 3.2 4.8 0.38 0.94 0.81 99 1009.2
20260506205722 9 248 4.8 9.7 0.38 0.91 0.76 99 1009.2
20260506205220 9 248 4.8 6.4 0.38 0.91 0.74 99 1009.2
20260506204732 9 249 3.2 4.8 0.33 0.86 0.69 99 1009.1
20260506204218 9 244 0.0 3.2 0.33 0.84 0.66 99 1009.1
20260506203722 9 0.0 0.0 0.33 0.81 0.64 99 1009.2
20260506203235 10 0.0 0.0 0.30 0.81 0.61 99 1009.1
20260506202733 10 311 0.0 1.6 0.33 0.91 0.58 99 1009.1
20260506202232 10 311 0.0 1.6 0.33 0.91 0.56 99 1009.0
20260506201731 10 311 0.0 1.6 0.30 0.86 0.51 99 1008.9
20260506201238 10 307 0.0 4.8 0.28 0.84 0.48 99 1009.0
20260506200729 10 234 0.0 1.6 0.28 0.81 0.46 99 1009.0
20260506200227 10 234 1.6 4.8 0.25 0.79 0.43 99 1009.0
20260506195726 10 234 4.8 4.8 0.23 0.74 0.38 99 1008.8
20260506195229 10 234 3.2 4.8 0.28 0.71 0.36 99 1008.8
20260506194724 10 234 1.6 3.2 0.36 0.71 0.36 99 1008.7
20260506194222 10 234 3.2 4.8 0.33 0.69 0.33 99 1008.7
20260506193721 10 234 3.2 4.8 0.30 0.66 0.30 99 1008.6
20260506193220 10 234 4.8 4.8 0.30 0.66 0.30 99 1008.7
20260506192718 10 233 4.8 4.8 0.25 0.61 0.25 99 1008.5
20260506192221 10 230 3.2 4.8 0.23 0.58 0.23 99 1008.5
20260506191737 10 236 3.2 4.8 0.20 0.56 0.20 98 1008.4
20260506191234 10 223 3.2 4.8 0.20 0.56 0.20 98 1008.3
20260506190732 10 223 3.2 4.8 0.18 0.53 0.18 98 1008.3
20260506190230 10 234 3.2 4.8 0.18 0.53 0.18 98 1008.3
20260506185729 10 233 3.2 4.8 0.15 0.51 0.15 97 1008.4
20260506185228 10 239 4.8 4.8 0.08 0.43 0.08 96 1008.4
20260506184733 10 238 4.8 4.8 0.00 0.36 0.00 95 1008.3
20260506184225 10 244 3.2 4.8 0.00 0.36 0.00 94 1008.2
20260506183724 10 251 4.8 4.8 0.00 0.36 0.00 94 1008.1
20260506183227 10 250 6.4 9.7 0.00 0.36 0.00 94 1008.1
20260506182725 11 245 6.4 9.7 0.00 0.36 0.00 93 1008.0
20260506182220 11 250 8.0 11.3 0.00 0.36 0.00 93 1007.9
20260506181719 11 256 6.4 9.7 0.00 0.36 0.00 91 1008.0
20260506181218 11 246 8.0 11.3 0.00 0.36 0.00 91 1007.9
20260506180720 11 245 8.0 14.5 0.00 0.36 0.00 91 1007.7
20260506180238 11 247 8.0 9.7 0.00 0.36 0.00 92 1007.9
20260506175733 11 240 9.7 12.9 0.00 0.36 0.00 91 1007.8
20260506175232 11 249 8.0 12.9 0.00 0.36 0.00 91 1007.7
20260506174735 11 249 9.7 14.5 0.00 0.36 0.00 92 1007.7
20260506174229 11 244 8.0 11.3 0.00 0.36 0.00 92 1007.7
20260506173728 11 241 6.4 11.3 0.00 0.36 0.00 93 1007.5
20260506173227 11 227 4.8 9.7 0.00 0.36 0.00 93 1007.4
20260506172730 11 236 6.4 9.7 0.00 0.36 0.00 93 1007.3
20260506172228 11 235 6.4 11.3 0.00 0.36 0.00 92 1007.3
20260506171723 11 233 6.4 11.3 0.00 0.36 0.00 91 1007.1
20260506171222 11 228 3.2 9.7 0.00 0.36 0.00 91 1007.0
20260506170721 11 242 3.2 6.4 0.00 0.36 0.00 90 1007.1
20260506170219 11 227 4.8 11.3 0.00 0.36 0.00 89 1007.1
20260506165726 11 233 6.4 11.3 0.00 0.36 0.00 89 1007.1
20260506165217 12 230 6.4 11.3 0.00 0.36 0.00 88 1007.1
20260506164715 12 233 6.4 11.3 0.00 0.36 0.00 86 1007.0
20260506164237 12 226 6.4 11.3 0.00 0.36 0.00 85 1007.1
20260506163732 12 241 6.4 11.3 0.00 0.36 0.00 83 1007.0
20260506163230 13 239 8.0 12.9 0.00 0.36 0.00 79 1006.9
20260506162729 14 226 4.8 14.5 0.00 0.36 0.00 73 1007.0
20260506162228 13 236 6.4 11.3 0.00 0.36 0.00 71 1007.1
20260506161726 14 232 6.4 11.3 0.00 0.36 0.00 72 1007.0
20260506161229 14 243 9.7 12.9 0.00 0.36 0.00 72 1007.1
20260506160726 13 236 6.4 12.9 0.00 0.36 0.00 73 1007.1
20260506160223 13 242 9.7 16.1 0.00 0.36 0.00 73 1007.1
20260506155722 13 254 8.0 11.3 0.00 0.36 0.00 74 1007.2
20260506155221 13 250 8.0 12.9 0.00 0.36 0.00 74 1007.2
20260506154720 13 258 9.7 12.9 0.00 0.36 0.00 74 1007.3
20260506154219 13 260 9.7 12.9 0.00 0.36 0.00 74 1007.3
20260506153721 14 257 8.0 12.9 0.00 0.36 0.00 74 1007.2
20260506153216 13 252 9.7 12.9 0.00 0.36 0.00 74 1007.2
20260506152735 13 254 11.3 12.9 0.00 0.36 0.00 73 1007.3
20260506152233 13 247 8.0 11.3 0.00 0.36 0.00 74 1007.2
20260506151732 13 252 8.0 11.3 0.00 0.36 0.00 73 1007.1
20260506151233 13 243 8.0 11.3 0.00 0.36 0.00 73 1007.1
20260506150732 13 243 6.4 11.3 0.00 0.36 0.00 73 1007.1
20260506150229 13 260 9.7 11.3 0.00 0.36 0.00 72 1007.0
20260506145728 13 246 8.0 11.3 0.00 0.36 0.00 72 1007.0
20260506145228 13 244 8.0 12.9 0.00 0.36 0.00 72 1007.0
20260506144727 13 249 6.4 9.7 0.00 0.36 0.00 72 1006.8
20260506144223 14 242 6.4 11.3 0.00 0.36 0.00 72 1006.8
20260506143722 14 252 6.4 9.7 0.00 0.36 0.00 72 1006.8
20260506143221 14 238 8.0 11.3 0.00 0.36 0.00 72 1006.8
20260506142720 14 249 6.4 11.3 0.00 0.36 0.00 71 1006.8
20260506142219 14 250 6.4 9.7 0.00 0.36 0.00 71 1006.8
20260506141720 14 246 6.4 9.7 0.00 0.36 0.00 71 1006.8
20260506141216 14 248 6.4 9.7 0.00 0.36 0.00 71 1006.8
20260506140735 14 240 4.8 6.4 0.00 0.36 0.00 70 1006.9
20260506140240 14 247 4.8 6.4 0.00 0.36 0.00 70 1006.9
20260506135734 14 247 8.0 12.9 0.00 0.36 0.00 70 1007.0
20260506135233 14 251 8.0 12.9 0.00 0.36 0.00 70 1007.0
20260506134730 13 248 4.8 9.7 0.00 0.36 0.00 69 1006.9
20260506134228 14 259 6.4 11.3 0.00 0.36 0.00 69 1006.9
20260506133726 14 251 8.0 12.9 0.00 0.36 0.00 71 1007.0
20260506133226 14 244 8.0 9.7 0.00 0.36 0.00 70 1006.9
20260506132724 14 239 9.7 12.9 0.00 0.36 0.00 70 1006.9
20260506132225 14 255 6.4 11.3 0.00 0.36 0.00 69 1006.8
20260506131723 14 249 6.4 11.3 0.00 0.36 0.00 70 1006.9
20260506131220 14 249 4.8 9.7 0.00 0.36 0.00 70 1006.9
20260506130719 15 241 8.0 11.3 0.00 0.36 0.00 70 1007.0
20260506130218 14 248 6.4 9.7 0.00 0.36 0.00 70 1006.9
20260506125721 15 254 8.0 11.3 0.00 0.36 0.00 70 1006.9
20260506125216 15 250 8.0 12.9 0.00 0.36 0.00 70 1006.9
20260506124740 15 253 9.7 14.5 0.00 0.36 0.00 69 1006.8
20260506124233 15 254 6.4 11.3 0.00 0.36 0.00 70 1006.7
20260506123732 14 258 6.4 11.3 0.00 0.36 0.00 72 1006.7
20260506123231 14 259 8.0 11.3 0.00 0.36 0.00 72 1006.8
20260506122734 14 253 8.0 11.3 0.00 0.36 0.00 73 1006.8
20260506122232 14 256 8.0 11.3 0.00 0.36 0.00 72 1006.9
20260506121728 14 232 9.7 17.7 0.00 0.36 0.00 70 1006.7
20260506121226 13 251 8.0 12.9 0.00 0.36 0.00 71 1006.8
20260506120727 13 259 9.7 17.7 0.00 0.36 0.00 72 1006.9
20260506120224 13 252 11.3 14.5 0.00 0.36 0.00 73 1006.9
20260506115723 13 249 11.3 16.1 0.00 0.36 0.00 75 1007.0
20260506115221 13 255 11.3 16.1 0.00 0.36 0.00 76 1006.9
20260506114721 13 261 11.3 14.5 0.00 0.36 0.00 77 1007.0
20260506114222 13 253 9.7 16.1 0.00 0.36 0.00 77 1007.0
20260506113717 13 239 9.7 14.5 0.00 0.36 0.00 78 1007.2
20260506113216 13 237 8.0 12.9 0.00 0.36 0.00 79 1007.3
20260506112734 13 254 11.3 14.5 0.00 0.36 0.00 79 1007.3
20260506112237 13 247 8.0 12.9 0.00 0.36 0.00 79 1007.3
20260506111732 13 229 3.2 6.4 0.00 0.36 0.00 77 1007.3
20260506111235 13 229 3.2 12.9 0.00 0.36 0.00 77 1007.3
20260506110730 13 232 8.0 12.9 0.00 0.36 0.00 76 1007.3
20260506110230 13 250 9.7 14.5 0.00 0.36 0.00 78 1007.3
20260506105727 13 245 9.7 14.5 0.00 0.36 0.00 78 1007.3
20260506105226 13 246 9.7 14.5 0.00 0.36 0.00 77 1007.3
20260506104725 13 245 9.7 16.1 0.00 0.36 0.00 74 1007.2
20260506104223 13 243 8.0 16.1 0.00 0.36 0.00 76 1007.3
20260506103728 13 250 9.7 14.5 0.00 0.36 0.00 77 1007.4
20260506103221 13 249 12.9 16.1 0.00 0.36 0.00 76 1007.3
20260506102720 12 256 11.3 14.5 0.00 0.36 0.00 78 1007.3
20260506102219 13 254 11.3 17.7 0.00 0.36 0.00 78 1007.3
20260506101717 13 253 11.3 16.1 0.00 0.36 0.00 78 1007.2
20260506101222 13 254 11.3 16.1 0.00 0.36 0.00 78 1007.3
20260506100735 13 252 9.7 12.9 0.00 0.36 0.00 78 1007.3
20260506100234 13 257 9.7 14.5 0.00 0.36 0.00 80 1007.3
20260506095733 13 243 9.7 14.5 0.00 0.36 0.00 79 1007.2
20260506095232 13 235 8.0 11.3 0.00 0.36 0.00 81 1007.3
20260506094736 13 249 6.4 14.5 0.00 0.36 0.00 81 1007.3
20260506094229 13 208 9.7 14.5 0.00 0.36 0.00 80 1007.2
20260506093728 13 244 8.0 12.9 0.00 0.36 0.00 83 1007.3
20260506093226 13 244 8.0 14.5 0.00 0.36 0.00 85 1007.3
20260506092726 12 230 6.4 12.9 0.00 0.36 0.00 84 1007.2
20260506092224 12 256 6.4 11.3 0.00 0.36 0.00 85 1007.3
20260506091726 12 239 8.0 11.3 0.00 0.36 0.00 84 1007.4
20260506091225 12 237 8.0 11.3 0.00 0.36 0.00 85 1007.3
20260506090720 12 259 9.7 12.9 0.00 0.36 0.00 85 1007.2
20260506090220 12 250 8.0 12.9 0.00 0.36 0.00 87 1007.3
20260506085717 12 262 11.3 14.5 0.00 0.36 0.00 86 1007.3
20260506085216 12 258 9.7 12.9 0.00 0.36 0.00 86 1007.2
20260506084735 12 248 9.7 14.5 0.00 0.36 0.00 86 1007.1
20260506084234 12 246 8.0 11.3 0.00 0.36 0.00 87 1007.2
20260506083734 12 248 8.0 11.3 0.00 0.36 0.00 88 1007.3
20260506083231 11 255 9.7 12.9 0.00 0.36 0.00 88 1007.1
20260506082732 11 254 9.7 12.9 0.00 0.36 0.00 89 1007.1
20260506082229 11 252 9.7 12.9 0.00 0.36 0.00 89 1006.9
20260506081728 11 254 9.7 12.9 0.00 0.36 0.00 89 1007.0
20260506081226 12 249 9.7 14.5 0.00 0.36 0.00 89 1006.9
20260506080725 12 251 8.0 12.9 0.00 0.36 0.00 91 1006.8
20260506080226 11 249 6.4 9.7 0.00 0.36 0.00 91 1006.8
20260506073217 11 243 4.8 9.7 0.00 0.36 0.00 92 1006.9
20260506072736 11 252 6.4 9.7 0.00 0.36 0.00 94 1006.9
20260506072234 11 241 6.4 9.7 0.00 0.36 0.00 94 1006.9
20260506071733 11 250 8.0 9.7 0.00 0.36 0.00 95 1006.9
20260506071232 11 247 8.0 12.9 0.00 0.36 0.00 95 1007.0
20260506070735 10 234 6.4 11.3 0.00 0.36 0.00 96 1007.0
20260506070230 11 239 6.4 11.3 0.00 0.36 0.00 95 1007.0
20260506062220 10 243 8.0 12.9 0.00 0.36 0.00 95 1006.9
20260506061718 10 248 9.7 12.9 0.00 0.36 0.00 95 1006.7
20260506061217 10 250 8.0 9.7 0.00 0.36 0.00 95 1006.8
20260506060718 10 252 8.0 9.7 0.00 0.36 0.00 96 1006.8
20260506060238 10 253 8.0 9.7 0.00 0.36 0.00 96 1007.0